Location: Kott?ru
(16.6209°N, 80.6208°E)
Time: 01:13:03
(UTC+00:00)

Cosmos 44 Rocket - Pass Details

Date: 18 September 2020
Orbit: 644 x 746 km, 65.1° (Epoch: 26 October)

Event Time Altitude Azimuth Distance (km) Brightness Sun altitude
Exits shadow 23:35:11 18° 248° (WSW) 1,577 4.5 -13.0°
Maximum altitude 23:37:44 29° 296° (WNW) 1,177 4.0 -12.4°
Drops below altitude 10° 23:41:49 10° 357° (N) 2,070 5.8 -11.4°
Sets 23:44:24 0° 8° (N) 2,998 6.8 -10.8°
